Key statistics
Satellite OBJECT J at a glance.
Uptime
1209
Days in orbit
Revolutions
≈ 16.3
Per day
Orbit
SSO
Sun Synchronous Orbit
Inclination
97.4
Latest
Satellite identification and parameters
Extended collection of information and parameters for OBJECT J.
Object identification
Identified? True
Debris? False
Object name: OBJECT J
International designator: 2021-091J
Object number (NORAD): 49323
Object ID (CCSDS): 49323
Country: PEOPLES REPUBLIC OF CHINA (PRC)
Current information (Y/N): Y
RCS size: MEDIUM
Orbital parameters
Decay date: Feb. 4, 2025
Period: 88.221 minutes
Inclination: 97.3692 deg
SMA: 6564.596 km
Apoapsis: 190.069 km
Periapsis: 182.853 km
RAAN: 245.3295 deg
Eccentricy: 0.0005496
Argument of periapsis: 303.1516 deg
Mean anomaly: 56.9251 deg
Mean motion: 16.32265214 rev/day
Mean motion (dot): 0.07225704 rev/day2
B* drag term: 0.00134 1/REarth
Two-line elements (TLE)
Creation date: Feb. 1, 2025, 3:28 a.m.
Reference frame: TEME
Reference center: EARTH
Epoch: Jan. 31, 2025, 12:33 p.m. UTC
TLE line 0: 0 OBJECT J
TLE line 1: 1 49323U 21091J 25031.52303632 .07225704 24322-5 13400-2 0 9994
TLE line 2: 2 49323 97.3692 245.3295 0005496 303.1516 56.9251 16.32265214184522
Live tracking on map
Satellite OBJECT J has decayed and is no longer in orbit. No tracking available.
In-orbit conjunctions
Satellite OBJECT J has decayed and is no longer in orbit. No conjunctions available.
Associated space launch
Xihe, also known as the Chinese Hα Solar Explorer (CHASE), is designed to test a newly developed satellite platform and conduct solar observations. The scientific payload of the satellite is an Hα imaging spectrograph (HIS), which can, for the first time, acquire full-disk spectroscopic solar observations in the Hα waveband. It will complement the observations by on-orbit solar spacecraft (such as SDO, IRIS, STEREO and PSP), as well as future solar missions of the Solar Orbiter and the Chinese Advanced Space-based Solar Observatory (ASO-S). Mission is named Xihe after a solar deity from Chinese mythology.
OBJECT J was lifted into orbit during the mission ‘Long March 2D | Xihe (CHASE)’, on board a Long March 2D space rocket.
The launch took place on Oct. 14, 2021, 10:51 a.m. from Launch Complex 9.
For more information about the launch, click the button.
Long March 2D | Xihe (CHASE)
Agency: N/A
Status: Launch Successful
Launch date: Oct. 14, 2021, 10:51 a.m. UTC
Rocket: Long March 2D
Launch pad: Launch Complex 9
Location: Taiyuan Satellite Launch Center, People's Republic of China
...
Latest news about this satellite
China launches hydrogen-alpha solar telescope aboard Long March 2D
China has launched a small experimental solar observatory as part of a multi-satellite launch aboard a Long March 2D rocket Thursday. The launch took place from the Taiyuan Satellite Launch Center at 10:51 UTC (18:51 Bejing time).
China launches orbiting solar observatory
China successfully launched a half-ton scientific research satellite Oct. 14 to study the violent and sudden physical processes behind solar flares, joining 10 other small payloads on a Long March 2D rocket that also tested grid fins to help guide the exp...
China launches first solar observatory, tests grid fins
China carried out its 37th orbital launch of the year Thursday, successfully sending the Chinese H-alpha Solar Explorer and 10 other satellites into orbit.
Newsletter sign-up
Weekly statistics, charts and insights to help you stay on top of the space industry.
